| time (UTC) | temp C | wind direction | speed KPH | gust KPH | rain 1hr cm | rain 24hr cm | rain mn cm | humidity % | barometer mb |
| 20260505115346 | 25 | 130 | 9.7 | 16.1 | 0.00 | 0.00 | 0.00 | 35 | 1006.7 |
| 20260505114344 | 25 | 121 | 8.0 | 12.9 | 0.00 | 0.00 | 0.00 | 35 | 1006.6 |
| 20260505113343 | 24 | 106 | 4.8 | 6.4 | 0.00 | 0.00 | 0.00 | 36 | 1006.7 |
| 20260505112342 | 24 | 174 | 8.0 | 14.5 | 0.00 | 0.00 | 0.00 | 36 | 1006.8 |
| 20260505111341 | 25 | 196 | 4.8 | 6.4 | 0.00 | 0.00 | 0.00 | 37 | 1006.8 |
| 20260505101327 | 23 | 197 | 3.2 | 4.8 | 0.00 | 0.00 | 0.00 | 38 | 1007.5 |
| 20260505100325 | 23 | 347 | 6.4 | 8.0 | 0.00 | 0.00 | 0.00 | 38 | 1007.5 |
| 20260505095321 | 23 | 169 | 3.2 | 4.8 | 0.00 | 0.00 | 0.00 | 39 | 1007.7 |
| 20260505093318 | 22 | 215 | 3.2 | 4.8 | 0.00 | 0.00 | 0.00 | 41 | 1007.9 |
| 20260505092316 | 22 | 103 | 3.2 | 4.8 | 0.00 | 0.00 | 0.00 | 43 | 1007.8 |
| 20260505091314 | 21 | 278 | 3.2 | 4.8 | 0.00 | 0.00 | 0.00 | 42 | 1007.7 |
| 20260505090312 | 21 | 100 | 6.4 | 6.4 | 0.00 | 0.00 | 0.00 | 44 | 1008.0 |
| 20260505083306 | 20 | 211 | 1.6 | 3.2 | 0.00 | 0.00 | 0.00 | 44 | 1008.4 |
| 20260505082305 | 20 | 243 | 4.8 | 6.4 | 0.00 | 0.00 | 0.00 | 45 | 1008.6 |
| 20260505081302 | 20 | 158 | 6.4 | 8.0 | 0.00 | 0.00 | 0.00 | 46 | 1008.4 |
| 20260505080301 | 19 | 209 | 0.0 | 1.6 | 0.00 | 0.00 | 0.00 | 47 | 1008.3 |
| 20260505075259 | 18 | 206 | 3.2 | 4.8 | 0.00 | 0.00 | 0.00 | 47 | 1008.5 |
| 20260505073255 | 18 | 184 | 1.6 | 3.2 | 0.00 | 0.00 | 0.00 | 47 | 1008.7 |
| 20260505072253 | 18 | 226 | 0.0 | 1.6 | 0.00 | 0.00 | 0.00 | 47 | 1008.8 |
| 20260505071251 | 18 | 194 | 0.0 | 1.6 | 0.00 | 0.00 | 0.00 | 46 | 1008.9 |
| 20260505070248 | 17 | 224 | 0.0 | 0.0 | 0.00 | 0.00 | 0.00 | 49 | 1008.9 |
| 20260505065226 | 17 | 228 | 0.0 | 1.6 | 0.00 | 0.00 | 0.00 | 51 | 1008.9 |
| 20260505064222 | 16 | 219 | 3.2 | 3.2 | 0.00 | 0.00 | 0.00 | 55 | 1008.7 |
| 20260505063219 | 15 | 247 | 1.6 | 3.2 | 0.00 | 0.00 | 0.00 | 57 | 1009.0 |
| 20260505062217 | 14 | 240 | 1.6 | 3.2 | 0.00 | 0.00 | 0.00 | 57 | 1009.0 |
| 20260505060211 | 13 | 226 | 0.0 | 1.6 | 0.00 | 0.00 | 0.00 | 62 | 1009.0 |
| 20260505055209 | 12 | 229 | 0.0 | 0.0 | 0.00 | 0.00 | 0.00 | 64 | 1009.0 |
| 20260505054208 | 11 | 227 | 1.6 | 1.6 | 0.00 | 0.00 | 0.00 | 67 | 1009.0 |
| 20260505053205 | 23 | 250 | 0.0 | 1.6 | 0.00 | 0.00 | 0.00 | 42 | 1014.0 |
| 20260505051540 | 23 | 250 | 0.0 | 1.6 | 0.00 | 0.00 | 0.00 | 42 | 1014.0 |
| 20260505032557 | 23 | 250 | 0.0 | 1.6 | 0.00 | 0.00 | 0.00 | 42 | 1014.0 |
| 20260505023514 | 23 | 250 | 0.0 | 1.6 | 0.00 | 0.00 | 0.00 | 42 | 1014.0 |
| 20260505011310 | 23 | 250 | 0.0 | 1.6 | 0.00 | 0.00 | 0.00 | 42 | 1014.0 |
| 20260504171504 | 23 | 250 | 0.0 | 1.6 | 0.00 | 0.00 | 0.00 | 42 | 1014.0 |
| 20260504150852 | 23 | 250 | 0.0 | 1.6 | 0.00 | 0.00 | 0.00 | 42 | 1014.0 |